FW8566 Weather Reports


time (UTC)temp
C
wind
direction
speed
KPH
gust
KPH
rain 1hr
cm
rain 24hr
cm
rain mn
cm
humidity
%
barometer
mb
20260507015509 11 222 14.5 14.5 0.00 0.28 0.28 99 1009.0
20260507015006 11 258 9.7 9.7 0.00 0.28 0.28 99 1009.0
20260507014502 11 237 12.9 14.5 0.00 0.28 0.28 99 1009.0
20260507013958 11 210 9.7 11.3 0.00 0.28 0.28 99 1009.0
20260507013455 11 258 9.7 11.3 0.00 0.28 0.28 99 1009.0
20260507012952 11 260 6.4 8.0 0.00 0.28 0.28 99 1009.0
20260507012449 11 260 6.4 6.4 0.00 0.28 0.28 99 1009.0
20260507011946 11 260 3.2 3.2 0.00 0.28 0.28 99 1009.0
20260507011443 11 260 3.2 3.2 0.00 0.28 0.28 99 1009.3
20260507010938 12 260 9.7 9.7 0.00 0.28 0.28 99 1009.3
20260507010433 12 260 6.4 6.4 0.00 0.28 0.28 99 1009.3
20260507005930 12 260 8.0 8.0 0.00 0.28 0.28 99 1009.3
20260507005427 12 258 8.0 8.0 0.00 0.28 0.28 99 1009.3
20260507004923 12 222 6.4 6.4 0.00 0.28 0.28 99 1009.3
20260507004420 12 276 6.4 6.4 0.00 0.28 0.28 99 1009.3
20260507003918 12 260 14.5 14.5 0.00 0.28 0.28 99 1009.3
20260507003413 12 207 14.5 14.5 0.00 0.28 0.28 99 1009.3
20260507002908 12 228 12.9 12.9 0.00 0.28 0.28 99 1009.0
20260507002404 12 222 11.3 11.3 0.00 0.28 0.28 99 1009.0
20260507001902 12 270 9.7 9.7 0.00 0.28 0.28 99 1009.0
20260507001358 12 269 14.5 19.3 0.00 0.28 0.28 99 1008.6
20260507000856 12 216 6.4 8.0 0.00 0.28 0.28 99 1008.6
20260507000350 12 256 9.7 9.7 0.00 0.28 0.28 99 1008.6
20260506235847 12 204 8.0 8.0 0.00 0.28 0.28 99 1009.0
20260506235345 11 240 12.9 14.5 0.00 0.28 0.28 99 1009.0
20260506234840 11 243 14.5 14.5 0.00 0.28 0.28 99 1009.0
20260506234338 11 264 11.3 11.3 0.00 0.28 0.28 99 1009.0
20260506233836 11 264 12.9 12.9 0.00 0.28 0.28 99 1009.0
20260506233331 11 284 11.3 11.3 0.00 0.28 0.28 99 1009.0
20260506232829 11 246 14.5 14.5 0.00 0.28 0.28 99 1009.0
20260506232324 11 198 14.5 17.7 0.00 0.28 0.28 99 1009.0
20260506231821 11 222 9.7 11.3 0.00 0.28 0.28 99 1009.0
20260506231319 11 252 14.5 14.5 0.00 0.28 0.28 99 1008.6
20260506230816 11 299 14.5 19.3 0.00 0.28 0.28 99 1008.6
20260506230312 11 262 14.5 17.7 0.00 0.28 0.28 99 1008.6
20260506225808 11 287 14.5 17.7 0.00 0.28 0.28 99 1008.6
20260506225306 12 240 9.7 9.7 0.00 0.28 0.28 99 1008.6
20260506224803 12 232 17.7 19.3 0.00 0.28 0.28 99 1008.6
20260506224300 12 232 20.9 24.1 0.00 0.28 0.28 99 1008.3
20260506223756 12 195 17.7 19.3 0.00 0.28 0.28 99 1008.3
20260506223251 12 210 19.3 20.9 0.00 0.28 0.28 99 1008.3
20260506222748 12 222 20.9 24.1 0.00 0.28 0.28 99 1009.0
20260506222244 12 216 19.3 20.9 0.00 0.28 0.28 99 1009.0
20260506221737 12 201 20.9 22.5 0.00 0.28 0.28 99 1009.0
20260506221234 11 204 12.9 14.5 0.00 0.28 0.28 99 1008.3
20260506220731 11 204 19.3 20.9 0.00 0.28 0.28 99 1008.3
20260506220226 11 216 9.7 11.3 0.00 0.28 0.28 99 1008.3
20260506215723 12 186 9.7 11.3 0.15 0.28 0.28 99 1008.6
20260506215219 12 228 17.7 17.7 0.15 0.28 0.28 99 1008.6
20260506214715 12 198 20.9 20.9 0.10 0.23 0.23 99 1008.6
20260506214213 12 216 24.1 25.7 0.10 0.23 0.23 99 1008.6
20260506213711 12 212 22.5 25.7 0.10 0.23 0.23 99 1008.6
20260506213208 12 192 20.9 22.5 0.10 0.23 0.23 99 1008.6
20260506212705 12 207 25.7 29.0 0.08 0.18 0.18 99 1009.3
20260506212200 12 198 27.4 32.2 0.08 0.18 0.18 98 1009.3
20260506211656 12 243 20.9 20.9 0.03 0.15 0.15 98 1009.3
20260506211152 12 218 14.5 14.5 0.03 0.15 0.15 96 1009.3
20260506210649 12 204 24.1 25.7 0.00 0.10 0.10 96 1009.3
20260506210146 12 198 19.3 20.9 0.00 0.10 0.10 95 1009.3
20260506205644 12 210 32.2 33.8 0.03 0.10 0.10 95 1009.3
20260506205138 12 212 20.9 24.1 0.03 0.10 0.10 94 1009.3
20260506204636 12 207 27.4 30.6 0.03 0.10 0.10 94 1009.3
20260506204133 13 186 20.9 22.5 0.00 0.08 0.08 94 1009.3
20260506203631 13 198 27.4 30.6 0.00 0.08 0.08 94 1009.3
20260506203127 13 198 30.6 33.8 0.00 0.08 0.08 93 1009.3
20260506202626 13 198 25.7 29.0 0.00 0.08 0.08 93 1009.3
20260506202121 13 204 20.9 24.1 0.00 0.08 0.08 93 1009.3
20260506201619 13 192 32.2 37.0 0.00 0.08 0.08 94 1009.3
20260506201115 13 198 20.9 24.1 0.00 0.08 0.08 94 1009.3
20260506200612 13 201 17.7 19.3 0.00 0.08 0.08 94 1009.3
20260506200109 13 200 17.7 19.3 0.00 0.08 0.08 93 1009.3
20260506195605 13 210 27.4 30.6 0.03 0.08 0.08 93 1009.3
20260506195102 13 292 30.6 32.2 0.03 0.08 0.08 93 1009.3
20260506194559 13 198 32.2 37.0 0.03 0.08 0.08 93 1009.6
20260506194055 13 222 29.0 35.4 0.03 0.08 0.08 93 1009.6
20260506193553 13 192 27.4 29.0 0.03 0.08 0.08 92 1009.6
20260506193050 13 201 27.4 29.0 0.03 0.08 0.08 93 1010.0
20260506192547 13 204 24.1 25.7 0.03 0.08 0.08 93 1010.0
20260506192043 13 218 24.1 25.7 0.03 0.08 0.08 93 1010.0
20260506191539 13 216 20.9 25.7 0.03 0.08 0.08 93 1010.0
20260506191035 13 210 27.4 29.0 0.03 0.08 0.08 94 1010.0
20260506190533 13 180 24.1 25.7 0.03 0.08 0.08 95 1010.0
20260506190030 13 210 24.1 25.7 0.00 0.03 0.03 94 1010.0
20260506185527 13 227 30.6 35.4 0.03 0.03 0.03 93 1010.0
20260506185024 13 201 22.5 25.7 0.00 0.00 0.00 93 1010.0
20260506184521 13 192 25.7 27.4 0.00 0.00 0.00 92 1010.6
20260506184018 13 192 24.1 27.4 0.00 0.00 0.00 90 1010.6
20260506183514 13 212 20.9 22.5 0.00 0.00 0.00 90 1010.6
20260506183011 13 216 29.0 32.2 0.00 0.00 0.00 89 1010.6
20260506182508 13 207 32.2 32.2 0.00 0.00 0.00 88 1010.6
20260506182005 13 219 24.1 25.7 0.00 0.00 0.00 87 1010.6
20260506181503 13 192 19.3 22.5 0.00 0.00 0.00 86 1010.6
20260506181000 13 222 32.2 35.4 0.00 0.00 0.00 86 1010.6
20260506180456 14 216 20.9 25.7 0.00 0.00 0.00 85 1010.6
20260506175953 14 222 29.0 32.2 0.00 0.00 0.00 85 1011.0
20260506175449 14 206 27.4 29.0 0.00 0.00 0.00 85 1011.0
20260506174946 14 240 24.1 27.4 0.00 0.00 0.00 85 1011.0
20260506174444 14 222 25.7 29.0 0.00 0.00 0.00 85 1011.0
20260506173940 14 216 27.4 32.2 0.00 0.00 0.00 85 1011.0
20260506173438 14 192 29.0 33.8 0.00 0.00 0.00 84 1011.0
20260506172934 14 231 29.0 33.8 0.00 0.00 0.00 84 1011.0
20260506172432 14 201 35.4 40.2 0.00 0.00 0.00 85 1011.0
20260506171928 14 215 37.0 38.6 0.00 0.00 0.00 85 1011.0
20260506171426 14 211 35.4 35.4 0.00 0.00 0.00 84 1011.7
20260506170924 15 198 32.2 37.0 0.00 0.00 0.00 84 1011.7
20260506170419 14 207 25.7 29.0 0.00 0.00 0.00 84 1011.7
20260506165913 14 204 32.2 37.0 0.00 0.00 0.00 84 1011.0
20260506165411 15 186 33.8 35.4 0.00 0.00 0.00 84 1011.0
20260506164907 15 192 25.7 30.6 0.00 0.00 0.00 84 1011.0
20260506164403 15 198 33.8 37.0 0.00 0.00 0.00 83 1011.7
20260506163901 15 210 33.8 37.0 0.00 0.00 0.00 83 1011.7
20260506163356 15 233 37.0 43.5 0.00 0.00 0.00 83 1011.7
20260506162851 15 215 25.7 29.0 0.00 0.00 0.00 83 1011.7
20260506162349 15 216 24.1 27.4 0.00 0.00 0.00 83 1011.7
20260506161841 15 216 32.2 33.8 0.00 0.00 0.00 83 1011.7
20260506161338 15 222 20.9 24.1 0.00 0.00 0.00 82 1012.0
20260506160835 15 228 27.4 30.6 0.00 0.00 0.00 82 1012.0
20260506160332 15 201 25.7 29.0 0.00 0.00 0.00 82 1012.0
20260506155830 15 233 17.7 19.3 0.00 0.00 0.00 82 1012.3
20260506155326 15 232 17.7 17.7 0.00 0.00 0.00 82 1012.3
20260506153439 15 207 9.7 11.3 0.00 0.00 0.00 82 1012.3
20260506152937 15 216 14.5 17.7 0.00 0.00 0.00 83 1012.3
20260506152433 15 236 17.7 19.3 0.00 0.00 0.00 81 1012.3
20260506151932 15 263 22.5 25.7 0.00 0.00 0.00 82 1012.3
20260506151428 14 246 12.9 14.5 0.00 0.00 0.00 82 1012.7
20260506150926 15 195 14.5 14.5 0.00 0.00 0.00 82 1012.7
20260506150422 15 245 20.9 22.5 0.00 0.00 0.00 82 1012.7
20260506145919 15 198 17.7 20.9 0.00 0.00 0.00 82 1012.7
20260506145415 15 295 19.3 20.9 0.00 0.00 0.00 82 1012.7
20260506144913 14 265 11.3 11.3 0.00 0.00 0.00 81 1012.7
20260506144409 14 283 11.3 11.3 0.00 0.00 0.00 83 1012.7
20260506143908 15 234 14.5 14.5 0.00 0.00 0.00 83 1012.7
20260506143404 14 226 11.3 12.9 0.00 0.00 0.00 82 1012.7
20260506142903 14 246 17.7 20.9 0.00 0.00 0.00 83 1012.7
20260506142401 14 194 22.5 25.7 0.00 0.00 0.00 84 1012.7
20260506141858 14 234 17.7 19.3 0.00 0.00 0.00 82 1012.7
20260506141356 14 285 12.9 14.5 0.00 0.00 0.00 84 1012.3
20260506140854 14 254 11.3 11.3 0.00 0.00 0.00 84 1012.3
20260506140351 14 238 17.7 19.3 0.00 0.00 0.00 84 1012.3
20260506135848 14 198 11.3 12.9 0.00 0.00 0.00 83 1012.0
20260506135344 14 246 25.7 33.8 0.00 0.00 0.00 82 1012.0
20260506134840 14 207 20.9 24.1 0.00 0.00 0.00 84 1012.0
20260506134337 14 205 30.6 32.2 0.00 0.00 0.00 84 1012.3
20260506133834 15 234 17.7 19.3 0.00 0.00 0.00 84 1012.3
20260506133331 14 222 27.4 30.6 0.00 0.00 0.00 84 1012.3
20260506132828 14 222 24.1 25.7 0.00 0.00 0.00 83 1012.7
20260506132325 14 228 19.3 22.5 0.00 0.00 0.00 85 1012.7
20260506131823 14 240 19.3 20.9 0.00 0.00 0.00 83 1012.7
20260506131319 14 233 12.9 14.5 0.00 0.00 0.00 84 1012.7
20260506130816 14 245 14.5 20.9 0.00 0.00 0.00 84 1012.7
20260506130312 14 244 20.9 22.5 0.00 0.00 0.00 83 1012.7
20260506125811 14 232 14.5 14.5 0.00 0.00 0.00 85 1012.7
20260506125308 14 232 20.9 24.1 0.00 0.00 0.00 84 1012.7
20260506124807 14 288 17.7 19.3 0.00 0.00 0.00 85 1012.7
20260506124303 14 192 25.7 25.7 0.00 0.00 0.00 84 1012.7
20260506123801 14 238 24.1 27.4 0.00 0.00 0.00 85 1012.7
20260506123300 14 201 14.5 17.7 0.00 0.00 0.00 86 1012.7
20260506122756 14 198 12.9 12.9 0.00 0.00 0.00 86 1012.7
20260506122253 14 216 19.3 20.9 0.00 0.00 0.00 86 1012.7
20260506121751 13 210 27.4 29.0 0.00 0.00 0.00 87 1012.7
20260506121248 13 198 24.1 25.7 0.00 0.00 0.00 87 1012.7
20260506120745 13 213 24.1 25.7 0.00 0.00 0.00 87 1012.7
20260506120243 14 198 19.3 20.9 0.00 0.00 0.00 86 1012.7
20260506115740 13 217 11.3 14.5 0.00 0.00 0.00 87 1013.0
20260506115238 13 216 12.9 14.5 0.00 0.00 0.00 87 1013.0
20260506114736 13 198 8.0 8.0 0.00 0.00 0.00 88 1013.0
20260506114233 13 286 9.7 11.3 0.00 0.00 0.00 89 1012.7
20260506113732 13 278 17.7 19.3 0.00 0.00 0.00 89 1012.7
20260506113229 13 192 20.9 24.1 0.00 0.00 0.00 89 1012.7
20260506112725 13 264 9.7 11.3 0.00 0.00 0.00 89 1013.0
20260506112223 13 210 24.1 25.7 0.00 0.00 0.00 90 1013.0
20260506111720 13 192 9.7 9.7 0.00 0.00 0.00 90 1013.0
20260506111218 13 244 17.7 19.3 0.00 0.00 0.00 90 1013.0
20260506110714 13 305 9.7 11.3 0.00 0.00 0.00 91 1013.0
20260506110212 13 210 9.7 11.3 0.00 0.00 0.00 91 1013.0
20260506105709 13 305 14.5 19.3 0.00 0.00 0.00 91 1012.7
20260506105206 12 186 17.7 20.9 0.00 0.00 0.00 91 1012.7
20260506104704 12 213 9.7 11.3 0.00 0.00 0.00 91 1012.7
20260506104201 12 282 14.5 14.5 0.00 0.00 0.00 92 1012.7
20260506103658 12 301 19.3 20.9 0.00 0.00 0.00 92 1012.7
20260506103155 12 276 14.5 14.5 0.00 0.00 0.00 91 1012.7
20260506102653 12 204 30.6 33.8 0.00 0.00 0.00 91 1012.7
20260506102150 12 210 20.9 25.7 0.00 0.00 0.00 91 1012.7
20260506101647 13 201 40.2 45.1 0.00 0.00 0.00 91 1012.7
20260506101144 13 198 20.9 24.1 0.00 0.00 0.00 91 1012.3
20260506100642 13 222 24.1 25.7 0.00 0.00 0.00 91 1012.3
20260506100140 13 217 32.2 35.4 0.00 0.00 0.00 91 1012.3
20260506095638 13 211 20.9 22.5 0.00 0.00 0.00 90 1012.3
20260506095134 13 204 40.2 41.8 0.00 0.00 0.00 91 1012.3
20260506094632 13 227 29.0 33.8 0.00 0.00 0.00 91 1012.3
20260506094130 13 240 17.7 17.7 0.00 0.00 0.00 91 1012.7
20260506093628 13 180 35.4 37.0 0.00 0.00 0.00 91 1012.7
20260506093125 13 218 17.7 20.9 0.00 0.00 0.00 91 1012.7
20260506092623 13 204 29.0 32.2 0.00 0.00 0.00 91 1012.7
20260506092120 13 162 30.6 33.8 0.00 0.00 0.00 91 1012.7
20260506091618 13 237 27.4 30.6 0.00 0.00 0.00 91 1012.7
20260506091115 13 218 25.7 29.0 0.00 0.00 0.00 91 1012.7
20260506090613 13 222 20.9 22.5 0.00 0.00 0.00 90 1012.7
20260506090108 13 212 40.2 43.5 0.00 0.00 0.00 90 1012.7
20260506085606 13 201 9.7 9.7 0.00 0.00 0.00 90 1013.0
20260506085102 13 216 33.8 40.2 0.00 0.00 0.00 89 1013.0
20260506084559 13 222 30.6 33.8 0.00 0.00 0.00 89 1013.0
20260506084055 13 216 17.7 22.5 0.00 0.00 0.00 89 1013.0
20260506083552 13 222 20.9 24.1 0.00 0.00 0.00 89 1013.0
20260506083050 13 204 37.0 40.2 0.00 0.00 0.00 89 1013.0
20260506082546 13 210 24.1 25.7 0.00 0.00 0.00 88 1013.0
20260506082042 13 234 17.7 19.3 0.00 0.00 0.00 88 1013.0
20260506081540 13 236 24.1 30.6 0.00 0.00 0.00 88 1013.0
20260506081037 13 228 11.3 12.9 0.00 0.00 0.00 88 1013.0
20260506080535 13 207 22.5 25.7 0.00 0.00 0.00 88 1013.0
20260506073519 13 198 19.3 20.9 0.00 0.00 0.00 89 1013.0
20260506073016 13 241 12.9 12.9 0.00 0.00 0.00 89 1013.0
20260506072513 13 250 14.5 17.7 0.00 0.00 0.00 89 1013.0
20260506072010 13 226 17.7 19.3 0.00 0.00 0.00 88 1013.0
20260506071508 13 218 20.9 22.5 0.00 0.00 0.00 88 1013.4
20260506071005 13 239 17.7 22.5 0.00 0.00 0.00 88 1013.4
20260506070502 13 243 12.9 14.5 0.00 0.00 0.00 89 1013.4
20260506062439 13 228 11.3 12.9 0.00 0.00 0.00 88 1013.4
20260506061935 13 262 8.0 8.0 0.00 0.00 0.00 88 1013.4
20260506061432 13 275 6.4 6.4 0.00 0.00 0.00 88 1013.4
20260506060930 13 290 9.7 11.3 0.00 0.00 0.00 88 1013.4
20260506060428 13 232 19.3 22.5 0.00 0.00 0.00 88 1013.4
20260506051400 14 238 25.7 27.4 0.00 0.00 0.00 85 1013.7
20260506050857 14 207 32.2 37.0 0.00 0.00 0.00 85 1013.7
20260506050355 14 234 32.2 35.4 0.00 0.00 0.00 84 1013.7
20260506044845 14 204 20.9 22.5 0.00 0.00 0.00 85 1013.7
20260506044343 14 198 17.7 19.3 0.00 0.00 0.00 85 1013.7
20260506043840 14 213 25.7 29.0 0.00 0.00 0.00 84 1013.7
20260506043337 14 238 24.1 27.4 0.00 0.00 0.00 83 1013.7
20260506042835 14 228 25.7 32.2 0.00 0.00 0.00 83 1013.7
20260506042334 13 228 20.9 24.1 0.00 0.00 0.00 84 1013.7
20260506041832 14 222 17.7 20.9 0.00 0.00 0.00 83 1013.7
20260506041329 14 238 20.9 22.5 0.00 0.00 0.00 82 1013.7
20260506040826 14 204 43.5 49.9 0.00 0.00 0.00 82 1013.7
20260506040323 14 238 20.9 24.1 0.00 0.00 0.00 82 1013.7
20260506035820 13 259 19.3 20.9 0.00 0.00 0.00 81 1013.7
20260506035317 13 202 25.7 29.0 0.00 0.00 0.00 82 1013.7
20260506034814 14 227 20.9 27.4 0.00 0.00 0.00 81 1013.7
20260506034311 14 243 20.9 24.1 0.00 0.00 0.00 80 1014.0
20260506033808 13 213 37.0 40.2 0.00 0.00 0.00 82 1014.0
20260506033305 13 248 19.3 20.9 0.00 0.00 0.00 83 1014.0
20260506032802 13 270 20.9 22.5 0.00 0.00 0.00 83 1013.7
20260506032259 13 264 17.7 19.3 0.00 0.00 0.00 83 1013.7
20260506031755 13 268 24.1 25.7 0.00 0.00 0.00 82 1013.7
20260506031253 13 343 9.7 9.7 0.00 0.00 0.00 83 1013.7
20260506030751 13 259 11.3 11.3 0.00 0.00 0.00 83 1013.7
20260506030249 13 268 12.9 14.5 0.00 0.00 0.00 82 1013.7
20260506025745 13 246 17.7 19.3 0.00 0.00 0.00 83 1013.4
20260506025241 13 264 6.4 8.0 0.00 0.00 0.00 82 1013.4
20260506024738 13 228 14.5 17.7 0.00 0.00 0.00 82 1013.4
20260506024235 13 278 14.5 14.5 0.00 0.00 0.00 82 1013.4
20260506023731 13 312 11.3 12.9 0.00 0.00 0.00 82 1013.4
20260506023229 13 310 8.0 9.7 0.00 0.00 0.00 82 1013.4
20260506022725 13 308 8.0 8.0 0.00 0.00 0.00 82 1013.7
20260506022223 13 288 11.3 12.9 0.00 0.00 0.00 81 1013.7
20260506021721 13 305 9.7 11.3 0.00 0.00 0.00 81 1013.7
20260506021218 13 284 14.5 14.5 0.00 0.00 0.00 81 1013.4
20260506020714 13 294 12.9 12.9 0.00 0.00 0.00 81 1013.4
20260506020212 13 283 6.4 8.0 0.00 0.00 0.00 82 1013.4